Terminal Aerodrome Forecast
Issued by NWS

Home | Current Version | Previous Version | Text Only | Print | Product List | Glossary On
Versions: 1 2 3 4 5 6 7 8 9 10 11 12 13 14 15 16 17 18 19 20 21 22
000
FTUS41 KCAR 231133
TAFFVE
TAF
KFVE 231133Z 2312/2412 25008KT P6SM BKN025 OVC035
     FM231400 28009KT P6SM SCT025 OVC050
     FM240000 20005KT P6SM SCT015 OVC040=

USA.gov is the U.S. government's official web portal to all federal, state and local government web resources and services.